Home > Time Zones > World Clock > Weather > U.S.A. > Erie > Past weeks

Flag for U.S.A. Weather past 2 weeks in Erie, Pennsylvania, U.S.A.

Now
29 °F

Overcast.


Feels Like: 24 °F
Forecast: 24 / 27 °F
Wind: 5 mph from Southwest

Location: Erie International Airport

Current Time: Feb 1, 2015 at 4:22:19 AM

Latest Report: Feb 1, 2015 at 3:51 AM


Visibility: 10 mi

Pressure: 30.20 "Hg

Humidity: 69%

Dew point: 20 °F

Location of ErieLocation

Historic Weather in Erie — Graph

°F

Erie temperature yesterday

Maximum temperature yesterday: 28 °F (at 10:51 PM)
Minimum temperature yesterday: 8 °F (at 3:51 AM)
Average temperature yesterday: 19 °F

Past Weeks' High & Low Weather Summary

 TemperatureHumidityPressure
High47 °F (Jan 17, 9:51 PM)93% (Jan 29, 9:51 PM)30.45 "Hg (Jan 29, 9:51 PM)
Low2 °F (Jan 28, 3:51 AM)30% (Jan 29, 6:51 AM)29.56 "Hg (Jan 24, 2:51 PM)
Average25 °F74%30.05 "Hg
* Reported Jan 17 2:51 AM — Feb 1 2:51 AM, Erie, Weather by CustomWeather, © 2014

Note: Actual official high and low records may vary slightly from our data, if they occured in-between our weather recording intervals... More about our weather records

Advertising

Erie weather history for previous 24 hours

 ConditionsComfort  
Time TempWeatherWind HumidityBarometerVisibility
2:51 AM
Feb 1
29 °FOvercast.6 mph66%30.20 "Hg10 mi
1:51 AM29 °FOvercast.7 mph66%30.19 "Hg10 mi
12:51 AM29 °FOvercast.8 mph64%30.20 "Hg10 mi
11:51 PM
Jan 31
28 °FOvercast.9 mph64%30.22 "Hg10 mi
10:51 PM28 °FOvercast.10 mph64%30.22 "Hg10 mi
9:51 PM27 °FOvercast.10 mph63%30.23 "Hg10 mi
8:51 PM27 °FOvercast.10 mph61%30.24 "Hg10 mi
7:51 PM26 °FOvercast.12 mph63%30.25 "Hg10 mi
6:51 PM25 °FPassing clouds.12 mph66%30.25 "Hg10 mi
5:51 PM26 °FOvercast.10 mph63%30.26 "Hg10 mi
4:51 PM26 °FOvercast.8 mph63%30.25 "Hg10 mi
3:51 PM25 °FOvercast.14 mph66%30.26 "Hg10 mi
2:51 PM24 °FOvercast.9 mph65%30.28 "Hg10 mi
1:51 PM23 °FOvercast.8 mph63%30.28 "Hg10 mi
12:51 PM22 °FMostly cloudy.12 mph60%30.31 "Hg10 mi
11:51 AM21 °FPartly sunny.8 mph62%30.34 "Hg10 mi
10:51 AM19 °FBroken clouds.7 mph62%30.36 "Hg10 mi
9:51 AM15 °FOvercast.10 mph64%30.36 "Hg10 mi
8:51 AM13 °FMore clouds than sun.8 mph67%30.37 "Hg10 mi
7:51 AM12 °FOvercast.9 mph64%30.38 "Hg10 mi
6:51 AM11 °FOvercast.7 mph67%30.38 "Hg10 mi
5:51 AM10 °FOvercast.7 mph73%30.39 "Hg10 mi
4:51 AM10 °FOvercast.8 mph76%30.39 "Hg10 mi
Weather by CustomWeather, © 2014

See weather overviewHow to use our weather pages